Location: Unspecified
(0.0000°N, 0.0000°E)
Time: 17:42:02
(UTC+00:00)

Hubble Space Telescope - Pass Details

Date: 15 August 2019
Orbit: 536 x 540 km, 28.5° (Epoch: 06 December)

Event Time Altitude Azimuth Distance (km) Brightness Sun altitude
Exits shadow 04:07:08 11° 144° (SE) 1,729 3.5 -28.4°
Drops below altitude 10° 04:07:18 10° 143° (SE) 1,788 3.6 -28.4°
Sets 04:09:42 0° 134° (SE) 2,681 4.7 -27.8°
